Change the Weather History Date:

Sunday, January 19, 2014

  Actual Average Record
Temperature  
Mean Temperature 30 °F -  
Max Temperature 41 °F 22 °F 42 °F (2013)
Min Temperature 19 °F 6 °F -11 °F (2008)
Degree Days  
Heating Degree Days 35    
Moisture  
Dew Point 25 °F    
Average Humidity 75    
Maximum Humidity 93    
Minimum Humidity 61    
Precipitation  
Precipitation 0.00 in - - ()
Sea Level Pressure  
Sea Level Pressure 29.64 in    
Wind  
Wind Speed 16 mph (West)    
Max Wind Speed 24 mph    
Max Gust Speed 32 mph    
Visibility 10 miles    
Events      
Averages and records for this station are not official NWS values.
T = Trace of Precipitation, MM = Missing Value Source: NWS Daily Summary

Daily Weather History Graph

Daily Weather History Graph

Search for Another Location

Airport or City:

Trip Planner

Search our weather history database for the weather conditions in past years. The results will help you decide how hot, cold, wet, or windy it might be!

Date:

Astronomy

Jan. 19, 2014 Rise Set
Actual Time 7:47 AM CST 5:13 PM CST
Civil Twilight 7:16 AM CST 5:45 PM CST
Nautical Twilight 6:41 AM CST 6:20 PM CST
Astronomical Twilight 6:07 AM CST 6:54 PM CST
Moon 9:01 PM CST (1/19) 9:10 AM CST (1/19)
Length of Visible Light 10h 28m
Length of Day
9h 25m
Waning Gibbous, 89% of the Moon is Illuminated
Jan 19
Waning Gibbous
Jan 23
Last Quarter
Jan 30
New
Feb 6
First Quarter
Feb 14
Full

Hourly Weather History & Observations

Time (CST) Temp. Windchill Dew Point Humidity Pressure Visibility Wind Dir Wind Speed Gust Speed Precip Events Conditions
12:13 AM 19.4 °F 5.5 °F 17.6 °F 93% 29.80 in 10.0 mi SW 15.0 mph - N/A   Clear
12:33 AM 21.2 °F 7.3 °F 17.6 °F 86% 29.79 in 10.0 mi SW 16.1 mph - N/A   Clear
12:52 AM 21.2 °F 6.8 °F 19.4 °F 93% 29.79 in 10.0 mi SW 17.3 mph - N/A   Clear
1:13 AM 21.2 °F 5.2 °F 17.6 °F 86% 29.78 in 10.0 mi SW 21.9 mph 27.6 mph N/A   Clear
1:33 AM 21.2 °F 6.0 °F 17.6 °F 86% 29.76 in 10.0 mi SW 19.6 mph 28.8 mph N/A   Clear
1:52 AM 23.0 °F 8.7 °F 19.4 °F 86% 29.74 in 10.0 mi SW 18.4 mph 24.2 mph N/A   Clear
2:13 AM 23.0 °F 9.2 °F 19.4 °F 86% 29.73 in 10.0 mi SW 17.3 mph 26.5 mph N/A   Clear
2:32 AM 24.8 °F 10.7 °F 21.2 °F 86% 29.73 in 10.0 mi WSW 19.6 mph - N/A   Clear
2:53 AM 26.6 °F 13.4 °F 21.2 °F 80% 29.71 in 10.0 mi WSW 18.4 mph 25.3 mph N/A   Clear
3:13 AM 28.4 °F 17.0 °F 21.2 °F 74% 29.71 in 10.0 mi WSW 15.0 mph 23.0 mph N/A   Clear
3:32 AM 28.4 °F 16.2 °F 21.2 °F 74% 29.70 in 10.0 mi WSW 17.3 mph 26.5 mph N/A   Clear
3:53 AM 26.6 °F 14.3 °F 21.2 °F 80% 29.69 in 10.0 mi WSW 16.1 mph 20.7 mph N/A   Clear
4:13 AM 28.4 °F 16.2 °F 21.2 °F 74% 29.67 in 10.0 mi WSW 17.3 mph 23.0 mph N/A   Clear
4:32 AM 28.4 °F 16.6 °F 21.2 °F 74% 29.66 in 10.0 mi SW 16.1 mph 24.2 mph N/A   Clear
4:53 AM 28.4 °F 17.0 °F 21.2 °F 74% 29.64 in 10.0 mi WSW 15.0 mph - N/A   Clear
5:13 AM 28.4 °F 16.2 °F 19.4 °F 69% 29.64 in 10.0 mi WSW 17.3 mph 23.0 mph N/A   Clear
5:32 AM 26.6 °F 14.3 °F 19.4 °F 74% 29.63 in 10.0 mi WSW 16.1 mph 21.9 mph N/A   Clear
5:53 AM 26.6 °F 14.7 °F 19.4 °F 74% 29.63 in 10.0 mi WSW 15.0 mph - N/A   Clear
6:13 AM 28.4 °F 16.2 °F 19.4 °F 69% 29.63 in 10.0 mi WSW 17.3 mph - N/A   Clear
6:32 AM 28.4 °F 15.8 °F 19.4 °F 69% 29.63 in 10.0 mi WSW 18.4 mph - N/A   Clear
6:53 AM 30.2 °F 18.9 °F 19.4 °F 64% 29.62 in 10.0 mi WSW 16.1 mph - N/A   Clear
7:13 AM 30.2 °F 19.3 °F 19.4 °F 64% 29.62 in 10.0 mi WSW 15.0 mph - N/A   Clear
7:32 AM 30.2 °F 18.9 °F 21.2 °F 69% 29.62 in 10.0 mi WSW 16.1 mph - N/A   Clear
7:53 AM 30.2 °F 21.3 °F 19.4 °F 64% 29.61 in 10.0 mi WSW 10.4 mph - N/A   Clear
8:12 AM 30.2 °F 20.2 °F 21.2 °F 69% 29.61 in 10.0 mi WSW 12.7 mph - N/A   Clear
8:33 AM 30.2 °F 19.3 °F 21.2 °F 69% 29.60 in 10.0 mi WSW 15.0 mph - N/A   Clear
8:53 AM 30.2 °F 18.9 °F 21.2 °F 69% 29.62 in 10.0 mi WSW 16.1 mph - N/A   Clear
9:12 AM 30.2 °F 18.5 °F 21.2 °F 69% 29.62 in 10.0 mi WSW 17.3 mph - N/A   Clear
9:33 AM 30.2 °F 18.5 °F 21.2 °F 69% 29.62 in 10.0 mi WSW 17.3 mph - N/A   Clear
9:53 AM 32.0 °F 21.2 °F 23.0 °F 69% 29.61 in 10.0 mi West 16.1 mph - N/A   Clear
10:12 AM 33.8 °F 23.9 °F 23.0 °F 65% 29.60 in 10.0 mi West 15.0 mph - N/A   Clear
10:33 AM 35.6 °F 26.2 °F 24.8 °F 65% 29.59 in 10.0 mi West 15.0 mph - N/A   Clear
10:52 AM 35.6 °F 25.9 °F 26.6 °F 70% 29.59 in 10.0 mi WSW 16.1 mph 24.2 mph N/A   Clear
11:13 AM 35.6 °F 25.2 °F 26.6 °F 70% 29.60 in 10.0 mi West 18.4 mph 25.3 mph N/A   Clear
11:33 AM 35.6 °F 25.5 °F 26.6 °F 70% 29.58 in 10.0 mi West 17.3 mph - N/A   Clear
11:52 AM 35.6 °F 26.2 °F 26.6 °F 70% 29.55 in 10.0 mi West 15.0 mph 23.0 mph N/A   Clear
12:13 PM 37.4 °F 28.5 °F 26.6 °F 65% 29.54 in 10.0 mi West 15.0 mph - N/A   Clear
12:33 PM 37.4 °F 28.2 °F 28.4 °F 70% 29.53 in 10.0 mi West 16.1 mph 21.9 mph N/A   Clear
12:52 PM 37.4 °F 27.8 °F 28.4 °F 70% 29.52 in 10.0 mi West 17.3 mph 23.0 mph N/A   Clear
1:13 PM 39.2 °F 30.5 °F 28.4 °F 65% 29.52 in 10.0 mi West 16.1 mph 23.0 mph N/A   Clear
1:33 PM 41.0 °F 32.2 °F 28.4 °F 61% 29.52 in 10.0 mi West 18.4 mph 25.3 mph N/A   Clear
1:52 PM 41.0 °F 31.9 °F 30.2 °F 65% 29.51 in 10.0 mi West 19.6 mph 24.2 mph N/A   Clear
2:13 PM 41.0 °F 31.9 °F 30.2 °F 65% 29.50 in 10.0 mi West 19.6 mph 26.5 mph N/A   Clear
2:33 PM 41.0 °F 31.9 °F 30.2 °F 65% 29.51 in 10.0 mi West 19.6 mph 27.6 mph N/A   Clear
2:53 PM 41.0 °F 31.4 °F 30.2 °F 65% 29.51 in 10.0 mi West 21.9 mph 25.3 mph N/A   Clear
3:13 PM 41.0 °F 30.9 °F 30.2 °F 65% 29.52 in 10.0 mi West 24.2 mph 29.9 mph N/A   Clear
3:33 PM 41.0 °F 31.4 °F 30.2 °F 65% 29.54 in 10.0 mi WNW 21.9 mph 27.6 mph N/A   Clear
3:53 PM 41.0 °F 31.4 °F 30.2 °F 65% 29.56 in 10.0 mi WNW 21.9 mph 32.2 mph N/A   Clear
4:13 PM 41.0 °F 31.1 °F 30.2 °F 65% 29.58 in 10.0 mi WNW 23.0 mph 32.2 mph N/A   Clear
4:33 PM 41.0 °F 31.1 °F 30.2 °F 65% 29.59 in 10.0 mi West 23.0 mph 31.1 mph N/A   Clear
4:52 PM 39.2 °F 29.3 °F 30.2 °F 70% 29.60 in 10.0 mi WNW 20.7 mph 26.5 mph N/A   Clear
5:13 PM 37.4 °F 27.8 °F 30.2 °F 75% 29.60 in 10.0 mi WNW 17.3 mph 23.0 mph N/A   Clear
5:32 PM 37.4 °F 27.8 °F 30.2 °F 75% 29.62 in 10.0 mi WNW 17.3 mph 24.2 mph N/A   Clear
5:53 PM 37.4 °F 28.2 °F 30.2 °F 75% - 10.0 mi WNW 16.1 mph 24.2 mph N/A   Clear
6:12 PM 37.4 °F 27.8 °F 30.2 °F 75% 29.64 in 10.0 mi WNW 17.3 mph 21.9 mph N/A   Clear
6:33 PM 37.4 °F 28.5 °F 30.2 °F 75% 29.65 in 10.0 mi WNW 15.0 mph - N/A   Clear
6:53 PM 35.6 °F 26.6 °F 30.2 °F 81% 29.66 in 10.0 mi WNW 13.8 mph - N/A   Clear
7:12 PM 35.6 °F 26.2 °F 30.2 °F 81% 29.67 in 10.0 mi WNW 15.0 mph 20.7 mph N/A   Clear
7:33 PM 35.6 °F 26.2 °F 30.2 °F 81% 29.68 in 10.0 mi WNW 15.0 mph - N/A   Clear
7:53 PM 35.6 °F 25.5 °F 30.2 °F 81% 29.69 in 10.0 mi NW 17.3 mph 24.2 mph N/A   Scattered Clouds
8:12 PM 35.6 °F 26.6 °F 30.2 °F 81% 29.70 in 10.0 mi NW 13.8 mph 19.6 mph N/A   Mostly Cloudy
8:33 PM 33.8 °F 25.8 °F 30.2 °F 87% 29.70 in 10.0 mi NW 10.4 mph - N/A   Mostly Cloudy
8:53 PM 33.8 °F 27.0 °F 30.2 °F 87% 29.72 in 10.0 mi NW 8.1 mph - N/A   Clear
9:12 PM 32.0 °F 26.4 °F 30.2 °F 93% 29.72 in 10.0 mi NW 5.8 mph - N/A   Scattered Clouds
9:33 PM 32.0 °F 27.5 °F 30.2 °F 93% 29.73 in 10.0 mi North 4.6 mph - N/A   Mostly Cloudy
9:53 PM 32.0 °F 27.5 °F 28.4 °F 87% 29.74 in 10.0 mi North 4.6 mph - N/A   Scattered Clouds
10:12 PM 32.0 °F - 28.4 °F 87% 29.73 in 10.0 mi Calm Calm - N/A   Clear
10:33 PM 30.2 °F 24.3 °F 26.6 °F 86% 29.75 in 10.0 mi WNW 5.8 mph - N/A   Clear
10:53 PM 30.2 °F 25.4 °F 28.4 °F 93% 29.75 in 10.0 mi NW 4.6 mph - N/A   Clear
11:13 PM 30.2 °F 25.4 °F 26.6 °F 86% 29.75 in 10.0 mi WNW 4.6 mph - N/A   Clear
11:33 PM 28.4 °F 24.6 °F 26.6 °F 93% 29.75 in 7.0 mi West 3.5 mph - N/A   Clear
11:53 PM 28.4 °F 23.3 °F 26.6 °F 93% 29.76 in 7.0 mi West 4.6 mph - N/A   Clear